Wind_Speed
6 6 4 4 6 6 5 6 2 4 4 2 1 1 8 10 10 5 3 11 12 18 19 17 14 14 15 16 18 19 19 18 16 15 12 11 11 10 8 8 7 8 7 6 5 6 7 8 8
8 6 4 5 7 10 8 1 4 3 4 4 4 3 4 13 10 10 6 9 16 18 19 16 15 13 14 16 17 19 19 17 16 14 12 11 11 9 7 6 6 6 6 5 5 6 6 6 6
9 7 8 4 6 9 7 1 4 4 3 4 6 3 3 5 9 6 6 12 17 17 17 17 14 12 14 16 16 18 18 17 16 14 12 11 10 8 7 5 5 4 6 4 5 5 4 5 4
5 5 6 8 7 4 2 4 6 2 4 5 3 8 8 7 3 5 9 13 15 16 15 15 13 11 12 15 16 17 17 17 15 14 13 12 11 9 7 6 5 4 4 4 4 4 3 4 4
6 6 6 7 5 5 2 4 3 5 4 7 5 7 7 8 9 10 10 13 15 15 13 14 14 12 11 12 15 17 17 16 16 15 14 13 11 9 8 7 5 5 4 3 3 3 4 4 5
10 5 8 11 7 5 4 4 2 4 6 6 8 9 8 8 10 10 10 12 13 14 13 12 13 13 12 12 13 14 15 16 17 16 15 14 12 10 9 8 7 6 5 4 3 2 4 5 5
12 8 8 7 10 9 5 2 5 4 7 7 4 7 9 8 8 9 10 11 11 11 11 8 10 12 12 12 12 13 14 15 16 16 15 14 12 11 10 9 9 8 7 5 4 3 4 5 5
5 6 9 10 11 6 6 4 3 3 6 4 2 6 9 6 7 7 8 8 9 9 9 10 9 9 11 12 14 13 13 14 15 16 16 15 14 12 11 10 11 10 9 6 6 5 5 6 6
3 6 10 10 11 8 6 6 3 1 3 5 5 7 7 6 6 6 7 7 8 9 10 10 10 11 11 10 13 14 15 15 16 17 17 16 13 13 13 12 11 11 10 8 7 6 6 6 5
8 8 5 5 3 6 5 4 1 5 5 5 4 3 2 3 4 5 7 9 9 10 11 11 12 12 11 11 11 14 16 16 18 18 18 17 13 12 11 14 13 12 11 10 9 8 7 4 5
5 5 4 8 5 3 4 7 5 7 8 6 7 6 5 5 6 8 9 9 7 10 11 11 12 13 12 11 11 11 12 13 15 18 17 17 14 13 15 10 13 12 12 10 10 11 9 7 8
7 3 4 7 5 4 6 5 11 11 10 2 5 6 8 9 11 12 13 13 12 10 10 11 12 13 13 12 13 11 12 13 13 15 20 17 17 14 13 12 11 11 10 11 11 10 11 11 10
6 7 5 5 6 8 5 10 10 11 6 6 6 7 8 10 10 12 13 14 15 13 11 10 10 11 14 17 12 11 12 13 13 14 16 18 18 16 14 13 12 11 11 11 11 12 12 12 11
3 5 6 5 5 8 10 7 5 9 6 6 6 8 10 11 11 13 15 16 14 15 14 12 12 13 15 15 15 12 12 12 12 13 15 20 21 22 14 14 12 12 12 12 12 12 12 12 12
5 10 8 9 6 6 6 10 10 7 8 10 13 13 14 13 13 13 13 16 16 16 14 15 14 15 16 14 14 14 11 11 10 11 13 17 20 22 18 13 14 14 13 13 13 13 12 12 14
10 9 12 10 7 8 6 10 12 9 11 16 18 19 20 21 19 17 13 16 18 20 17 16 13 13 11 8 10 8 10 9 10 8 11 12 16 20 17 15 14 14 15 14 13 13 12 13 14
9 10 11 8 7 3 9 10 4 10 13 18 20 22 22 22 23 22 18 16 19 21 20 19 14 13 12 8 7 8 8 8 8 8 8 10 10 15 16 18 13 15 15 16 15 14 14 14 15
5 10 8 11 8 9 13 16 12 13 16 18 20 20 18 17 17 17 21 17 18 20 21 21 17 14 15 12 8 7 7 7 7 6 6 6 9 10 13 15 13 17 17 19 17 16 15 15 14
9 10 12 8 7 9 13 15 15 15 17 14 13 13 13 13 12 14 17 20 21 22 21 22 22 19 18 16 12 10 7 6 7 7 8 5 6 8 9 12 15 15 19 18 18 17 17 16 15
11 13 13 10 10 8 15 18 16 17 17 12 10 10 12 11 10 10 14 19 24 22 25 24 25 24 21 17 14 12 11 9 9 9 10 10 10 10 9 10 11 13 15 17 18 19 18 17 17
12 13 12 13 11 12 17 20 20 7 12 13 12 12 11 11 11 11 12 21 26 25 25 26 27 25 23 19 18 18 12 12 10 10 10 11 13 15 15 15 13 13 12 15 19 20 17 18 16
13 10 12 14 13 12 2 11 9 13 12 14 20 14 12 10 8 8 9 11 16 20 26 26 27 25 22 22 17 17 16 14 10 11 9 11 11 14 16 17 17 16 13 14 16 22 26 30 28
14 6 12 14 15 16 15 11 13 4 10 11 14 12 9 6 6 6 7 8 9 14 20 24 25 25 22 21 19 16 17 15 15 13 15 17 16 17 15 16 17 18 17 17 15 18 24 28 29
9 12 13 12 13 15 19 16 10 10 9 11 11 11 10 9 9 9 9 9 9 9 9 13 17 19 19 19 20 19 18 16 12 10 10 9 10 10 13 13 15 17 19 19 18 16 21 28 36
12 15 10 12 10 11 4 7 15 2 6 8 10 14 12 11 11 11 11 11 10 9 8 7 7 8 8 9 11 13 14 14 13 11 9 12 12 13 13 14 14 15 17 19 20 19 19 23 28
13 15 12 14 12 10 8 7 5 6 13 13 12 12 14 11 10 11 10 10 10 9 8 7 8 9 11 13 15 17 17 12 11 11 11 10 11 14 15 16 17 17 17 19 21 21 21 21 25
15 11 16 20 20 16 17 22 11 13 12 12 15 16 17 13 10 11 10 9 8 5 7 10 12 14 16 19 20 20 19 18 13 15 15 10 15 13 15 17 19 20 19 19 21 22 23 22 24
14 15 11 11 16 22 16 18 10 4 13 14 14 18 19 17 12 9 8 8 8 10 12 15 17 18 19 23 23 21 22 20 18 17 14 15 17 19 22 23 19 20 21 21 21 23 24 24 24
12 16 16 15 16 17 19 14 7 3 8 12 13 19 14 15 18 11 9 11 13 14 15 16 18 20 21 23 24 23 20 21 19 15 14 15 19 21 22 21 20 19 20 21 24 24 24 25 25
17 21 17 13 17 18 18 20 12 11 10 8 10 8 12 10 12 16 19 19 20 22 22 21 20 21 22 23 23 21 20 17 17 16 15 18 20 19 18 18 19 21 22 22 24 26 26 26 27
Wind_Direction
163 156 171 217 234 235 187 151 320 246 212 47 235 262 26 42 25 36 33 164 151 159 166 161 169 169 165 167 170 172 172 169 166 163 162 158 154 150 149 148 146 137 128 115 105 96 90 88 94
166 160 195 248 253 211 151 133 216 326 295 295 206 204 189 81 53 99 88 149 154 160 165 166 168 168 165 165 169 174 176 175 174 173 174 170 166 159 159 159 153 143 130 116 110 99 96 91 99
160 172 238 236 246 244 129 80 356 319 277 209 151 326 56 42 53 79 113 138 151 156 161 169 168 169 169 171 171 176 179 180 182 184 185 182 176 170 167 180 163 157 139 127 122 104 95 97 114
171 196 226 241 198 70 41 10 353 216 149 184 221 105 90 35 62 92 114 138 146 153 159 166 169 173 172 178 181 183 186 189 192 196 196 191 184 180 178 193 182 177 159 136 138 109 87 98 120
187 228 220 217 157 132 125 24 0 164 161 158 199 121 90 60 76 107 111 136 144 151 160 170 173 176 178 186 191 194 197 200 203 204 202 197 193 188 187 196 203 194 183 155 159 121 95 107 109
206 256 222 188 160 146 110 55 5 125 163 131 131 120 90 78 102 104 108 127 144 151 155 176 180 184 185 190 198 203 207 208 210 209 206 198 197 197 194 198 207 206 204 180 172 135 114 121 119
256 222 234 169 161 157 104 104 68 97 139 77 149 140 116 88 103 111 112 126 143 153 158 177 191 195 197 200 204 207 211 214 214 211 207 203 201 206 204 204 207 211 210 199 180 163 128 124 125
247 262 201 189 186 145 131 153 125 29 87 122 132 158 118 85 106 121 134 140 152 160 170 173 188 201 210 214 211 211 212 214 214 213 210 209 207 211 214 212 212 212 213 211 193 181 157 142 131
218 232 203 191 192 145 156 193 127 126 118 88 105 108 115 103 121 149 162 173 175 179 187 184 189 194 193 202 219 219 217 214 215 216 215 213 211 215 220 216 216 216 218 213 211 198 184 173 159
240 244 189 144 161 183 163 244 154 221 178 166 162 158 137 135 165 196 198 202 206 208 204 199 195 199 199 204 218 223 225 221 219 219 221 213 207 209 201 230 221 220 220 220 213 213 206 190 197
176 247 145 166 169 230 238 240 226 245 225 215 226 217 226 244 238 233 233 231 230 221 220 213 217 226 213 214 216 215 215 215 219 217 215 214 216 219 208 219 225 225 221 222 217 214 210 202 219
195 160 184 159 180 230 236 278 256 243 259 246 237 233 241 243 248 248 248 246 242 236 225 223 220 240 242 217 229 218 217 218 217 220 225 210 213 215 206 211 210 207 223 207 209 217 209 213 210
232 172 191 200 233 236 247 257 266 246 235 240 233 233 230 240 248 249 250 249 244 238 233 219 218 238 241 237 222 223 221 224 221 220 223 215 218 214 216 216 212 214 215 219 217 214 218 218 219
153 210 214 204 191 202 229 235 226 211 211 226 242 241 235 240 248 253 247 243 239 231 226 223 232 249 253 240 233 228 224 228 225 224 223 233 230 227 217 222 223 222 218 220 220 221 221 216 219
203 232 194 197 179 174 244 231 224 194 226 242 248 248 246 245 248 251 246 238 231 227 225 235 242 250 257 257 247 238 222 221 229 238 228 229 230 229 226 224 230 229 226 220 223 223 223 222 221
224 236 207 164 198 157 238 265 171 235 241 259 265 262 259 253 251 247 245 235 229 232 231 231 231 239 239 237 232 218 220 218 225 233 221 227 228 225 231 228 236 237 232 230 226 227 229 229 229
199 238 222 166 214 198 222 272 225 244 266 271 266 261 260 258 253 247 245 239 237 237 227 226 226 217 212 213 223 221 217 226 220 223 219 219 228 230 234 238 232 246 240 234 229 229 229 234 228
227 233 212 249 170 239 258 258 255 261 270 275 263 256 253 255 255 248 237 235 235 237 223 220 217 204 212 190 196 201 215 218 218 224 221 219 230 235 241 250 248 231 248 242 234 228 231 231 237
280 268 265 262 262 267 266 272 271 271 274 267 243 234 235 247 257 246 234 230 235 230 218 214 218 211 207 204 198 198 205 207 204 203 207 200 213 240 244 242 248 244 243 232 237 233 232 230 230
247 256 256 259 258 269 275 274 273 273 262 245 247 233 237 239 243 250 235 229 231 226 224 219 219 220 216 209 203 202 207 219 221 230 231 238 242 247 240 249 254 254 249 254 232 229 228 235 223
240 259 270 275 289 266 267 274 256 229 224 225 244 241 239 245 259 255 241 227 232 229 227 223 220 219 223 216 218 219 216 220 237 246 251 253 249 253 263 260 255 263 267 259 249 232 219 228 237
269 257 258 272 272 273 87 285 269 241 239 243 237 222 224 231 240 240 215 211 215 218 218 217 219 219 223 229 217 219 222 230 236 234 244 245 255 256 257 260 256 254 248 247 245 244 244 218 223
274 312 273 272 270 276 259 253 274 192 227 205 201 204 199 196 188 176 174 166 167 195 206 214 216 221 220 221 211 222 230 234 238 243 252 265 265 270 271 261 257 249 250 250 251 241 239 230 226
272 269 254 255 259 258 250 239 256 228 219 196 186 188 176 163 153 144 138 134 136 143 171 195 205 213 217 219 225 231 224 226 229 240 254 267 266 271 277 272 262 252 249 248 251 249 247 240 237
246 254 258 243 216 252 100 254 245 246 212 199 190 187 180 170 156 148 146 140 131 136 143 155 172 190 203 214 221 226 231 234 240 246 252 265 277 275 277 280 276 263 258 249 248 250 248 248 242
231 249 248 274 267 268 144 243 248 279 238 221 224 215 189 191 172 167 161 156 154 155 167 178 193 208 221 230 237 241 239 228 226 239 248 265 270 276 274 277 277 273 265 254 251 249 249 249 247
246 237 267 275 271 271 263 267 229 219 240 232 216 214 200 189 184 185 185 189 187 200 223 226 223 226 229 227 229 230 232 225 224 246 261 264 273 278 282 277 273 269 265 258 253 250 247 247 249
253 277 230 230 262 261 258 251 255 190 214 223 226 211 211 196 198 196 205 219 243 257 258 253 242 239 237 239 235 229 229 234 243 252 264 266 279 285 289 286 276 271 264 260 256 251 248 243 247
224 236 231 264 263 273 273 268 35 4 254 241 220 216 217 210 216 223 246 258 267 271 271 265 253 242 237 234 229 222 226 237 246 252 258 270 284 289 288 284 276 273 269 262 257 254 249 245 246
283 273 256 248 256 249 258 264 284 282 220 230 215 213 209 223 247 260 272 274 276 278 277 270 254 242 242 235 228 220 225 230 238 248 256 275 286 285 284 283 280 273 269 265 262 259 252 251 246
Height
1515 1516 1516 1518 1513 1498 1492 1499 1498 1495 1494 1498 1498 1495 1492 1498 1500 1506 1510 1512 1515 1517 1517 1520 1524 1527 1528 1531 1533 1535 1537 1540 1541 1543 1545 1546 1547 1548 1548 1549 1550 1551 1552 1552 1552 1553 1553 1553 1554
1515 1516 1518 1513 1505 1498 1494 1499 1496 1496 1498 1500 1500 1500 1498 1503 1506 1510 1513 1513 1516 1518 1519 1522 1525 1528 1530 1532 1535 1537 1539 1541 1543 1545 1547 1548 1548 1549 1550 1550 1551 1552 1553 1553 1553 1554 1555 1555 1555
1515 1516 1514 1501 1495 1490 1491 1499 1499 1499 1500 1500 1497 1500 1501 1509 1511 1512 1514 1514 1517 1519 1521 1523 1526 1529 1531 1534 1536 1538 1541 1543 1545 1546 1548 1549 1549 1550 1551 1551 1552 1553 1554 1555 1555 1555 1556 1556 1556
1517 1518 1514 1501 1493 1503 1499 1500 1502 1499 1500 1501 1497 1501 1509 1513 1513 1514 1515 1516 1518 1522 1524 1525 1528 1530 1532 1535 1537 1540 1542 1544 1546 1547 1549 1549 1550 1551 1552 1552 1553 1553 1555 1555 1556 1556 1556 1557 1557
1516 1511 1500 1497 1501 1504 1504 1504 1503 1497 1499 1499 1501 1504 1510 1514 1515 1516 1516 1519 1522 1524 1526 1526 1528 1531 1533 1536 1538 1540 1542 1544 1546 1548 1549 1550 1551 1552 1553 1553 1554 1554 1555 1556 1557 1557 1556 1558 1558
1512 1507 1500 1500 1501 1504 1504 1505 1502 1498 1500 1502 1504 1506 1512 1515 1517 1518 1519 1521 1523 1525 1526 1526 1529 1531 1534 1536 1538 1540 1542 1544 1546 1548 1550 1551 1551 1552 1553 1554 1554 1555 1555 1556 1558 1558 1557 1558 1559
1505 1500 1492 1490 1502 1503 1504 1507 1504 1500 1499 1505 1506 1504 1513 1516 1517 1518 1520 1521 1523 1524 1526 1526 1528 1531 1533 1535 1538 1540 1542 1543 1546 1547 1549 1551 1552 1552 1553 1554 1554 1555 1555 1557 1558 1559 1559 1559 1559
1508 1501 1503 1495 1503 1504 1506 1506 1507 1504 1507 1509 1508 1505 1510 1516 1517 1519 1521 1523 1525 1526 1527 1528 1528 1529 1532 1534 1536 1538 1540 1542 1544 1547 1549 1550 1551 1552 1552 1553 1554 1555 1555 1556 1558 1559 1559 1560 1560
1511 1501 1497 1500 1499 1502 1506 1503 1508 1510 1507 1508 1510 1511 1515 1515 1517 1519 1521 1523 1525 1526 1527 1529 1529 1531 1532 1534 1533 1536 1538 1540 1542 1544 1546 1548 1551 1551 1551 1552 1553 1554 1555 1556 1557 1559 1559 1559 1560
1506 1497 1494 1499 1500 1502 1506 1507 1508 1508 1508 1508 1510 1512 1513 1515 1516 1517 1518 1519 1522 1525 1526 1527 1529 1530 1531 1533 1532 1533 1535 1538 1540 1542 1544 1546 1551 1552 1554 1551 1552 1553 1554 1555 1556 1557 1559 1559 1560
1506 1496 1505 1508 1508 1509 1507 1508 1509 1507 1505 1506 1508 1511 1513 1514 1515 1516 1516 1517 1519 1521 1524 1525 1525 1526 1529 1531 1532 1534 1536 1536 1537 1539 1541 1544 1548 1549 1549 1551 1550 1551 1553 1554 1555 1556 1557 1560 1562
1506 1508 1508 1509 1511 1511 1509 1508 1507 1507 1505 1509 1511 1511 1512 1513 1513 1514 1515 1516 1518 1520 1522 1523 1524 1524 1526 1529 1529 1532 1534 1535 1536 1537 1537 1541 1543 1546 1549 1551 1552 1552 1553 1555 1555 1557 1558 1560 1560
1505 1508 1510 1510 1511 1511 1511 1508 1506 1505 1506 1509 1510 1511 1511 1511 1512 1513 1513 1514 1516 1517 1519 1521 1521 1521 1523 1524 1527 1528 1531 1531 1534 1534 1535 1537 1539 1543 1545 1548 1549 1550 1551 1551 1553 1555 1555 1556 1558
1508 1508 1507 1508 1508 1509 1509 1505 1508 1504 1507 1507 1508 1507 1508 1510 1510 1510 1511 1511 1512 1514 1516 1518 1517 1518 1519 1521 1522 1525 1527 1529 1528 1531 1533 1532 1535 1537 1542 1543 1545 1547 1548 1549 1550 1551 1552 1554 1556
1508 1506 1504 1505 1505 1506 1508 1504 1503 1502 1505 1505 1504 1504 1505 1506 1507 1507 1507 1507 1509 1511 1513 1513 1515 1515 1516 1517 1519 1521 1524 1526 1527 1525 1528 1528 1531 1534 1537 1540 1543 1544 1545 1545 1546 1548 1548 1551 1552
1505 1502 1499 1497 1502 1504 1506 1495 1493 1500 1501 1500 1500 1500 1500 1500 1502 1503 1503 1503 1505 1506 1508 1510 1513 1513 1514 1515 1516 1519 1521 1523 1524 1523 1526 1526 1528 1531 1533 1536 1539 1542 1542 1542 1544 1544 1546 1548 1550
1499 1493 1497 1494 1499 1498 1501 1492 1491 1497 1497 1496 1495 1495 1494 1494 1495 1497 1498 1499 1500 1502 1505 1507 1509 1512 1512 1513 1515 1517 1518 1519 1521 1522 1522 1523 1525 1528 1530 1531 1534 1538 1540 1540 1540 1541 1543 1545 1546
1488 1495 1494 1495 1492 1497 1493 1489 1487 1490 1490 1489 1489 1488 1487 1488 1489 1490 1492 1494 1495 1497 1500 1504 1506 1508 1510 1512 1513 1516 1518 1519 1521 1522 1521 1522 1524 1526 1527 1528 1528 1529 1535 1539 1536 1536 1539 1541 1543
1496 1496 1495 1490 1491 1497 1490 1486 1482 1483 1483 1481 1481 1482 1483 1484 1484 1485 1486 1487 1490 1493 1496 1499 1502 1504 1507 1510 1513 1515 1517 1518 1519 1520 1520 1521 1522 1523 1522 1524 1526 1528 1530 1532 1532 1532 1533 1536 1540
1497 1495 1492 1488 1489 1493 1487 1481 1476 1476 1475 1477 1477 1477 1478 1479 1480 1481 1481 1483 1485 1488 1491 1495 1498 1501 1503 1507 1510 1513 1514 1516 1517 1519 1519 1519 1520 1520 1521 1522 1523 1524 1521 1522 1524 1527 1530 1533 1534
1492 1493 1489 1491 1486 1487 1484 1478 1463 1466 1469 1472 1474 1475 1476 1476 1477 1477 1476 1477 1479 1483 1486 1490 1493 1497 1500 1503 1505 1508 1511 1512 1515 1516 1516 1517 1517 1518 1518 1518 1519 1518 1518 1517 1517 1520 1523 1528 1531
1492 1482 1487 1488 1490 1488 1479 1481 1461 1458 1460 1464 1468 1470 1470 1472 1473 1472 1472 1472 1473 1477 1481 1484 1488 1492 1496 1498 1503 1505 1508 1510 1511 1513 1514 1514 1514 1514 1514 1514 1515 1515 1516 1515 1515 1516 1516 1515 1521
1487 1484 1486 1484 1483 1480 1476 1480 1458 1453 1459 1458 1461 1465 1468 1469 1469 1470 1470 1471 1472 1473 1476 1480 1483 1487 1491 1494 1498 1501 1503 1507 1509 1510 1509 1509 1509 1509 1510 1510 1510 1510 1511 1511 1511 1511 1511 1513 1517
1482 1486 1482 1482 1480 1481 1465 1467 1452 1444 1451 1451 1456 1462 1465 1466 1468 1469 1470 1470 1471 1474 1475 1477 1480 1483 1486 1490 1493 1496 1498 1501 1504 1504 1506 1507 1507 1507 1506 1505 1505 1506 1507 1507 1506 1506 1507 1508 1509
1483 1484 1484 1477 1474 1472 1461 1468 1451 1446 1450 1449 1454 1459 1463 1465 1466 1467 1469 1470 1472 1474 1476 1478 1480 1482 1485 1487 1490 1492 1494 1496 1498 1499 1502 1502 1504 1504 1504 1501 1500 1501 1501 1502 1503 1502 1501 1502 1503
1467 1476 1477 1482 1469 1453 1461 1466 1451 1445 1448 1452 1454 1456 1461 1464 1465 1466 1468 1470 1472 1474 1476 1478 1479 1480 1482 1484 1486 1488 1489 1491 1493 1494 1495 1496 1498 1499 1498 1497 1496 1496 1496 1497 1497 1497 1497 1497 1496
1468 1476 1466 1468 1459 1464 1454 1444 1437 1446 1448 1450 1452 1454 1458 1462 1465 1466 1467 1469 1471 1473 1474 1476 1477 1477 1478 1480 1481 1482 1484 1486 1488 1487 1489 1490 1489 1491 1491 1491 1490 1490 1490 1490 1490 1490 1491 1491 1491
1470 1462 1474 1469 1482 1471 1447 1440 1439 1440 1444 1445 1447 1450 1454 1459 1463 1464 1466 1467 1469 1469 1471 1472 1473 1473 1473 1474 1475 1476 1478 1479 1480 1481 1481 1482 1482 1482 1482 1482 1483 1483 1483 1484 1483 1483 1484 1485 1485
1464 1465 1463 1462 1457 1461 1453 1439 1429 1434 1438 1439 1440 1444 1449 1455 1458 1460 1463 1464 1465 1465 1466 1466 1467 1466 1467 1468 1469 1470 1472 1473 1474 1474 1475 1476 1475 1475 1475 1475 1475 1476 1476 1477 1475 1476 1477 1478 1478
1462 1456 1458 1472 1467 1454 1446 1434 1428 1434 1439 1441 1443 1446 1449 1453 1456 1458 1459 1460 1460 1460 1460 1460 1460 1460 1461 1463 1465 1464 1465 1467 1467 1468 1469 1468 1468 1468 1468 1467 1467 1468 1469 1470 1469 1468 1469 1471 1471